Location: Great Malvern
(52.1167°N, 2.3167°W)
Time: 00:52:39
(UTC+00:00)

IRS-1A Rocket - Pass Details

Date: 18 September 2020
Orbit: 851 x 931 km, 99.2° (Epoch: 23 October)

Event Time Altitude Azimuth Distance (km) Brightness Sun altitude
Exits shadow 19:46:51 - 165° (SSE) 3,402 7.0 -14.4°
Reaches altitude 10° 19:48:51 10° 167° (SSE) 2,631 6.4 -14.7°
Maximum altitude 19:54:45 80° 254° (WSW) 948 4.5 -15.5°
Drops below altitude 10° 20:00:39 10° 342° (NNW) 2,622 7.4 -16.3°
Sets 20:03:04 0° 344° (NNW) 3,559 8.1 -16.7°
